Regional Weather Roundup
Issued by NWS

Home | Current Version | Previous Version | Text Only | Print | Product List | Glossary Off
Versions: 1 2 3 4 5 6 7 8 9 10 11 12 13 14 15 16 17 18 19 20 21 22 23 24 25 26 27 28 29 30 31 32 33 34 35 36 37 38 39 40 41 42 43 44 45 46 47 48 49 50

000
ASUS45 KABQ 192001
RWRNM
WEATHER ROUNDUP FOR NEW MEXICO
NATIONAL WEATHER SERVICE ALBUQUERQUE NM
200 PM MDT FRI SEP 19 2014

NOTE: "FAIR" MEANS FEW OR NO CLOUDS BELOW 12,000 FEET AGL WITH NO
       SIGNIFICANT WEATHER OR OBSTRUCTIONS TO VISION.

      THIS PRODUCT IS RELEASED AS TWO VERSIONS.  ONE VERSION NEAR
      THE TOP OF THE HOUR CONTAINING PRELIMINARY DATA FROM ALBUQUERQUE
      AND OTHER STATIONS.  A FINAL VERSION WITH ADDITIONAL DATA IS
      ISSUED ABOUT 10 MINUTES AFTER THE HOUR.

NMZ501-503-504-510>518-192100-
NORTHWEST PLATEAU/NORTHCENTRAL MOUNTAINS

CITY           SKY/WX    TMP DP  RH WIND       PRES   REMARKS
FARMINGTON     SUNNY     84  46  26 VRB6      30.04F
LOS ALAMOS     MOSUNNY   76  45  32 NW3       30.16F
SANTA FE       SUNNY     79  48  33 SE9G16    30.09F
TAOS           SUNNY     75  45  33 N7        30.14F
ANGEL FIRE     FAIR      74  20  13 N7        30.21F

$$
NMZ402-403-502-505>509-192100-
WESTCENTRAL MOUNTAINS/SOUTHWEST MOUNTAINS

CITY           SKY/WX    TMP DP  RH WIND       PRES   REMARKS
GALLUP         MOSUNNY   83  41  22 N8G18     30.11F
SILVER CITY    MOSUNNY   73  59  60 S9        30.09S

$$
NMZ407-409-411-412-192100-
SOUTHERN DESERTS

CITY           SKY/WX    TMP DP  RH WIND       PRES   REMARKS
LORDSBURG      FAIR      77  61  57 MISG      30.01F
DEMING         PTSUNNY   78  61  55 VRB3      30.01F
LAS CRUCES     PTSUNNY   76  63  63 E5        30.02F
ALAMOGORDO     MOSUNNY   75  66  73 SE6       30.00F
T OR C         PTSUNNY   79  58  48 VRB6      30.02F

$$
NMZ519>523-192100-
CENTRAL VALLEYS/CENTRAL HIGHLANDS

CITY           SKY/WX    TMP DP  RH WIND       PRES   REMARKS
ALBUQUERQUE    PTSUNNY   78  54  43 SW5       30.05F
DOUBLE EAGLE   PTSUNNY   81  52  36 VRB7      30.09F
CLINES CORNERS CLOUDY    67  56  67 SE12      30.17F
BELEN          MOCLDY    79  55  42 W6        30.05F
SOCORRO        FAIR      78  60  53 N6        30.04F

$$
NMZ524>526-539-540-192100-
SOUTHCENTRAL MOUNTAINS

CITY           SKY/WX    TMP DP  RH WIND       PRES   REMARKS
RUIDOSO        NOT AVBL

$$
NMZ527>531-192100-
NORTHEAST HIGHLANDS/NORTHEAST PLAINS

CITY           SKY/WX    TMP DP  RH WIND       PRES   REMARKS
LAS VEGAS      MOSUNNY   71  56  58 S13G24    30.15F
RATON          SUNNY     79  51  37 S9        30.08F
CLAYTON        MOSUNNY   78  56  46 S15       30.02F

$$
NMZ532>537-192100-
EASTCENTRAL PLAINS

CITY           SKY/WX    TMP DP  RH WIND       PRES   REMARKS
TUCUMCARI      CLOUDY    79  58  48 SW9       30.00F
CANNON AFB     LGT RAIN  69  68  95 E13       30.04F
CLOVIS AIRPORT   N/A     72  64  78 S20       30.06F

$$
NMZ028-029-538-192100-
SOUTHEAST PLAINS

CITY           SKY/WX    TMP DP  RH WIND       PRES   REMARKS
ROSWELL        CLOUDY    70  67  90 E6        29.97F
CARLSBAD       MOSUNNY   79  77  94 SE10      29.92F
HOBBS          LGT RAIN  66  66 100 E10       30.00F


$$



USA.gov is the U.S. government's official web portal to all federal, state and local government web resources and services.